Terminal Aerodrome Forecast
Issued by NWS

Home | Current Version | Previous Version | Graphics & Text | Print | Product List | Glossary On
Versions: 1 2 3 4 5 6 7 8 9 10 11 12 13 14 15
000
FTUS43 KICT 181100
TAFRSL
TAF
KRSL 181132Z 1812/1912 01006KT P6SM FEW300
     FM182000 12007KT P6SM SCT300
     FM190600 17007KT P6SM BKN250=

USA.gov is the U.S. government's official web portal to all federal, state and local government web resources and services.